カタログに戻る

STARLINK-4081

運用中通信VLEO
NORAD 52660·PAYLOAD·🇺🇸 United States

打ち上げ May 18, 2022 から Cape Canaveral Space Force Station

Loading…

次のパス (今後24時間)

TLE

最新Source: CelesTrak SupGP

元期: Sep 14, 2026, 21:29 UTC

1 52660C 22053E   26257.89562500 -.00018027  00000+0 -57965-3 0  2579
2 52660  53.1605  11.8975 0001238  72.5164 227.4410 15.31714027    13

AllMySatでSTARLINK-4081をリアルタイム追跡

Download on the App Store